When you browse on this site, cookies collect data to enhance your experience and personalize the content and advertising you see.
Visit our Privacy Policy to learn more. By continuing to use the site, you agree to this use of cookies and data.
  • In Denmark
  • List of Countries
  • For 7 days
  • Water Temperature
  • Weather Map
  • Weather Widgets
  • user-avatar
    Login

    Hourly Weather Guaira

    Today, 25 May, Monday

    Time Temperature Precipitation Wind Pressure Humidity
    00:00 +10°C° 0 mm 0 mps 718 mmHg 95%
    01:00 +10°C° 0 mm 0 mps 717 mmHg 95%
    02:00 +10°C° 0 mm 0 mps 717 mmHg 95%
    03:00 +9°C° 0 mm 0 mps 717 mmHg 96%
    04:00 +9°C° 0 mm 0 mps 717 mmHg 96%
    05:00 +10°C° 0 mm 1 mps 717 mmHg 96%
    06:00 +10°C° 0 mm 1 mps 717 mmHg 96%
    07:00 +12°C° 0 mm 1 mps 717 mmHg 93%
    08:00 +12°C° 0 mm 0 mps 718 mmHg 89%
    09:00 +14°C° 0 mm 0 mps 718 mmHg 86%
    10:00 +16°C° 0 mm 1 mps 718 mmHg 78%
    11:00 +19°C° 0 mm 1 mps 718 mmHg 71%
    12:00 +20°C° 0 mm 2 mps 718 mmHg 64%
    13:00 +20°C° 0 mm 2 mps 718 mmHg 61%
    14:00 +21°C° 0 mm 2 mps 717 mmHg 59%
    15:00 +21°C° 0 mm 2 mps 717 mmHg 57%
    16:00 +19°C° 0 mm 2 mps 716 mmHg 64%
    17:00 +17°C° 0 mm 2 mps 716 mmHg 71%
    18:00 +16°C° 0 mm 1 mps 716 mmHg 78%
    19:00 +15°C° 0 mm 1 mps 716 mmHg 80%
    20:00 +14°C° 0 mm 1 mps 717 mmHg 82%
    21:00 +14°C° 0 mm 1 mps 717 mmHg 84%
    22:00 +13°C° 0 mm 1 mps 717 mmHg 86%
    23:00 +12°C° 0 mm 0 mps 717 mmHg 87%

    Tomorrow, 26 May, Tuesday

    Time Temperature Precipitation Wind Pressure Humidity
    00:00 +11°C° 0 mm 0 mps 717 mmHg 89%
    01:00 +11°C° 0 mm 0 mps 717 mmHg 89%
    02:00 +12°C° 0 mm 1 mps 717 mmHg 90%
    03:00 +11°C° 0 mm 1 mps 717 mmHg 90%
    04:00 +10°C° 0 mm 0 mps 717 mmHg 90%
    05:00 +10°C° 0 mm 0 mps 717 mmHg 90%
    06:00 +9°C° 0 mm 0 mps 717 mmHg 91%
    07:00 +11°C° 0 mm 0 mps 718 mmHg 85%
    08:00 +13°C° 0 mm 0 mps 718 mmHg 79%
    09:00 +16°C° 0 mm 1 mps 718 mmHg 73%
    10:00 +18°C° 0 mm 1 mps 718 mmHg 65%
    11:00 +19°C° 0 mm 2 mps 718 mmHg 58%
    12:00 +20°C° 0 mm 2 mps 718 mmHg 51%
    13:00 +20°C° 0 mm 2 mps 717 mmHg 52%
    14:00 +21°C° 0 mm 2 mps 717 mmHg 52%
    15:00 +21°C° 0 mm 3 mps 716 mmHg 53%
    16:00 +19°C° 0 mm 2 mps 716 mmHg 59%
    17:00 +18°C° 0 mm 1 mps 716 mmHg 66%
    18:00 +15°C° 0 mm 1 mps 716 mmHg 72%
    19:00 +15°C° 0 mm 1 mps 716 mmHg 74%
    20:00 +14°C° 0 mm 1 mps 716 mmHg 77%
    21:00 +13°C° 0 mm 1 mps 717 mmHg 79%
    22:00 +13°C° 0 mm 1 mps 717 mmHg 81%
    23:00 +12°C° 0 mm 1 mps 717 mmHg 82%

    Day after tomorrow, 27 May, Wednesday

    Time Temperature Precipitation Wind Pressure Humidity
    00:00 +12°C° 0 mm 1 mps 717 mmHg 84%
    01:00 +10°C° 0 mm 0 mps 717 mmHg 85%
    02:00 +10°C° 0 mm 0 mps 717 mmHg 86%
    03:00 +9°C° 0 mm 0 mps 717 mmHg 88%
    04:00 +9°C° 0 mm 0 mps 717 mmHg 88%
    05:00 +9°C° 0 mm 0 mps 717 mmHg 89%
    06:00 +9°C° 0 mm 0 mps 717 mmHg 90%
    07:00 +11°C° 0 mm 1 mps 717 mmHg 84%
    08:00 +13°C° 0 mm 1 mps 718 mmHg 79%
    09:00 +15°C° 0 mm 1 mps 718 mmHg 73%
    10:00 +18°C° 0 mm 1 mps 718 mmHg 65%
    11:00 +20°C° 0 mm 1 mps 718 mmHg 58%
    12:00 +20°C° 0 mm 0 mps 718 mmHg 50%
    13:00 +21°C° 0 mm 0 mps 718 mmHg 48%
    14:00 +21°C° 0 mm 0 mps 718 mmHg 46%
    15:00 +21°C° 0 mm 0 mps 717 mmHg 45%
    16:00 +19°C° 0 mm 0 mps 717 mmHg 51%
    17:00 +19°C° 0 mm 1 mps 717 mmHg 57%
    18:00 +16°C° 0 mm 1 mps 716 mmHg 63%
    19:00 +15°C° 0 mm 1 mps 717 mmHg 66%
    20:00 +15°C° 0 mm 1 mps 717 mmHg 68%
    21:00 +14°C° 0 mm 1 mps 717 mmHg 71%
    22:00 +13°C° 0 mm 1 mps 717 mmHg 73%
    23:00 +13°C° 0 mm 1 mps 717 mmHg 76%

    28 May, Thursday

    Time Temperature Precipitation Wind Pressure Humidity
    00:00 +12°C° 0 mm 1 mps 717 mmHg 78%
    01:00 +12°C° 0 mm 1 mps 717 mmHg 80%
    02:00 +12°C° 0 mm 1 mps 717 mmHg 82%
    03:00 +11°C° 0 mm 1 mps 716 mmHg 84%
    04:00 +11°C° 0 mm 1 mps 717 mmHg 85%
    05:00 +11°C° 0 mm 1 mps 717 mmHg 86%
    06:00 +11°C° 0 mm 1 mps 717 mmHg 86%
    07:00 +12°C° 0 mm 1 mps 718 mmHg 81%
    08:00 +14°C° 0 mm 1 mps 718 mmHg 75%
    09:00 +16°C° 0 mm 2 mps 719 mmHg 69%
    10:00 +19°C° 0 mm 1 mps 719 mmHg 63%
    11:00 +21°C° 0 mm 1 mps 719 mmHg 56%
    12:00 +24°C° 0 mm 1 mps 719 mmHg 50%
    13:00 +24°C° 0 mm 1 mps 718 mmHg 49%
    14:00 +25°C° 0 mm 1 mps 718 mmHg 48%
    15:00 +25°C° 0 mm 1 mps 717 mmHg 46%
    16:00 +23°C° 0 mm 1 mps 717 mmHg 52%
    17:00 +21°C° 0 mm 1 mps 717 mmHg 58%
    18:00 +19°C° 0 mm 1 mps 717 mmHg 64%
    19:00 +18°C° 0 mm 1 mps 717 mmHg 67%
    20:00 +18°C° 0 mm 1 mps 717 mmHg 71%
    21:00 +16°C° 0 mm 2 mps 717 mmHg 75%
    22:00 +15°C° 0 mm 2 mps 717 mmHg 78%
    23:00 +15°C° 0 mm 2 mps 717 mmHg 81%

    29 May, Friday

    Time Temperature Precipitation Wind Pressure Humidity
    00:00 +14°C° 0 mm 2 mps 717 mmHg 84%
    01:00 +14°C° 0 mm 2 mps 717 mmHg 85%
    02:00 +14°C° 0 mm 2 mps 717 mmHg 86%
    03:00 +14°C° 0 mm 2 mps 717 mmHg 87%
    04:00 +13°C° 0 mm 2 mps 717 mmHg 87%
    05:00 +13°C° 0 mm 2 mps 717 mmHg 87%
    06:00 +12°C° 0 mm 2 mps 717 mmHg 87%
    07:00 +14°C° 0 mm 2 mps 718 mmHg 81%
    08:00 +16°C° 0 mm 2 mps 719 mmHg 74%
    09:00 +18°C° 0 mm 3 mps 719 mmHg 67%
    10:00 +20°C° 0 mm 3 mps 719 mmHg 63%
    11:00 +22°C° 0 mm 3 mps 719 mmHg 58%
    12:00 +24°C° 0 mm 3 mps 719 mmHg 54%
    13:00 +25°C° 0 mm 2 mps 718 mmHg 52%
    14:00 +26°C° 0 mm 2 mps 718 mmHg 50%
    15:00 +27°C° 0 mm 2 mps 717 mmHg 48%
    16:00 +25°C° 0 mm 1 mps 717 mmHg 56%
    17:00 +23°C° 0 mm 1 mps 717 mmHg 63%
    18:00 +21°C° 0 mm 1 mps 717 mmHg 71%
    19:00 +20°C° 0 mm 1 mps 717 mmHg 73%
    20:00 +18°C° 0 mm 2 mps 717 mmHg 76%
    21:00 +17°C° 0 mm 2 mps 718 mmHg 78%
    22:00 +17°C° 0 mm 2 mps 718 mmHg 81%
    23:00 +16°C° 0 mm 2 mps 718 mmHg 83%

    30 May, Saturday

    Time Temperature Precipitation Wind Pressure Humidity
    00:00 +16°C° 0 mm 2 mps 718 mmHg 86%
    01:00 +15°C° 0 mm 2 mps 717 mmHg 87%
    02:00 +15°C° 0 mm 2 mps 717 mmHg 88%
    03:00 +15°C° 0 mm 2 mps 717 mmHg 89%
    04:00 +14°C° 0 mm 2 mps 717 mmHg 89%
    05:00 +14°C° 0 mm 2 mps 717 mmHg 90%
    06:00 +14°C° 0 mm 2 mps 717 mmHg 90%
    07:00 +15°C° 0 mm 2 mps 718 mmHg 83%
    08:00 +17°C° 0 mm 3 mps 719 mmHg 76%
    09:00 +19°C° 0 mm 3 mps 719 mmHg 69%
    10:00 +20°C° 0 mm 3 mps 719 mmHg 63%
    11:00 +22°C° 0 mm 3 mps 719 mmHg 58%
    12:00 +25°C° 0 mm 2 mps 719 mmHg 52%
    13:00 +26°C° 0 mm 2 mps 718 mmHg 50%
    14:00 +26°C° 0 mm 2 mps 718 mmHg 49%
    15:00 +27°C° 0 mm 2 mps 717 mmHg 47%
    16:00 +25°C° 0 mm 1 mps 717 mmHg 54%
    17:00 +23°C° 0 mm 1 mps 717 mmHg 61%
    18:00 +20°C° 0 mm 1 mps 717 mmHg 67%
    19:00 +20°C° 0 mm 1 mps 717 mmHg 69%
    20:00 +19°C° 0 mm 1 mps 717 mmHg 71%
    21:00 +18°C° 0 mm 1 mps 718 mmHg 73%
    22:00 +18°C° 0 mm 1 mps 718 mmHg 76%
    23:00 +16°C° 0 mm 1 mps 718 mmHg 78%
    Show more